Date String (YYYY-MM-DD hh:mm:ss) UTC,Instrument flags,absolute air pressure of the measurement (hPa),sample flow rate (lpm),inlet stack bypass flow (lpm),air temperature of the measurement (°C),ambient temperature measured by the external sensor (°C),aerosol sample conditioner tube jacket temperature (°C),OPC LED temperature (°C),internal box temperature (°C),relative humidity of the measurement (%),span deviation,mass concentration of particles derived from Lorenz-Mie calculation of OPC scattering (μg/m³),mass concentration of particles derived from Lorenz-Mie calculation of OPC scattering (μg/m³),mass concentration of particles derived from Lorenz-Mie calculation of OPC scattering (μg/m³)
DateTimeUTC,F1_M11,P_M11,Q1_M11,Q2_M11,T1_M11,T2_M11,T3_M11,T4_M11,T5_M11,U1_M11,ZSPAN_M11,X0_M11,X2_M11,X1_M11
2023-06-25 11:00:00,SystemResetWarning,0835.9,5.00,000.00,030.5,028.8,000.0,039.0,031.9,24.7,0000.0,0010.40,0003.56,0002.42
2023-06-25 11:01:00,SystemResetWarning,0835.9,5.00,000.00,030.5,028.8,000.0,039.0,032.0,24.6,0000.0,0010.71,0003.54,0002.42
2023-06-25 11:02:00,SystemResetWarning,0835.9,5.00,000.00,030.5,028.8,000.0,039.0,032.0,24.6,0000.0,0010.21,0003.53,0002.43
2023-06-25 11:03:00,SystemResetWarning,0835.9,5.00,000.00,030.5,028.8,000.0,039.0,031.9,24.6,0000.0,0009.84,0003.53,0002.42
2023-06-25 11:04:00,SystemResetWarning,0835.9,5.00,000.00,030.5,028.8,000.0,039.0,031.9,24.6,0000.0,0009.95,0003.50,0002.39
2023-06-25 11:05:00,SystemResetWarning,0835.9,5.00,000.00,030.5,028.8,000.0,039.0,032.0,24.5,0000.0,0009.91,0003.53,0002.40
2023-06-25 11:06:00,SystemResetWarning,0835.9,5.00,000.00,030.5,028.8,000.0,039.1,032.0,24.5,0000.0,0009.60,0003.52,0002.40
2023-06-25 11:07:00,SystemResetWarning,0835.9,5.00,000.00,030.5,028.8,000.0,039.1,031.9,24.6,0000.0,0009.51,0003.55,0002.42
2023-06-25 11:08:00,SystemResetWarning,0835.9,5.00,000.00,030.5,028.8,000.0,039.1,032.0,24.5,0000.0,0009.83,0003.56,0002.42
2023-06-25 11:09:00,SystemResetWarning,0835.9,5.00,000.00,030.5,028.8,000.0,039.1,032.0,24.5,0000.0,0010.19,0003.60,0002.43
2023-06-25 11:10:00,SystemResetWarning,0835.9,5.00,000.00,030.5,028.8,000.0,039.1,032.0,24.5,0000.0,0010.55,0003.62,0002.41
2023-06-25 11:11:00,SystemResetWarning,0835.9,4.99,000.00,030.5,028.8,000.0,039.1,031.9,24.5,0000.0,0010.60,0003.63,0002.41
2023-06-25 11:12:00,SystemResetWarning,0835.9,4.99,000.00,030.5,028.8,000.0,039.1,031.9,24.5,0000.0,0010.30,0003.66,0002.42
2023-06-25 11:13:00,SystemResetWarning,0835.9,5.00,000.00,030.5,028.9,000.0,039.1,032.0,24.5,0000.0,0010.78,0003.67,0002.41
2023-06-25 11:14:00,SystemResetWarning,0835.9,5.00,000.00,030.5,028.9,000.0,039.1,032.0,24.4,0000.0,0010.29,0003.65,0002.43
2023-06-25 11:15:00,SystemResetWarning,0835.9,5.01,000.00,030.5,028.9,000.0,039.1,032.0,24.4,0000.0,0010.72,0003.66,0002.44
2023-06-25 11:16:00,SystemResetWarning,0835.9,5.01,000.00,030.5,028.9,000.0,039.1,032.0,24.4,0000.0,0011.41,0003.65,0002.43
2023-06-25 11:17:00,SystemResetWarning,0835.9,4.99,000.00,030.5,028.9,000.0,039.1,032.0,24.4,0000.0,0011.86,0003.72,0002.43
2023-06-25 11:18:00,SystemResetWarning,0835.9,5.00,000.00,030.5,028.9,000.0,039.1,032.0,24.4,0000.0,0012.13,0003.75,0002.42
2023-06-25 11:19:00,SystemResetWarning,0835.9,5.00,000.00,030.5,028.9,000.0,039.1,032.0,24.4,0000.0,0011.59,0003.70,0002.42
2023-06-25 11:20:00,SystemResetWarning,0835.9,5.00,000.00,030.5,028.9,000.0,039.1,031.9,24.4,0000.0,0011.49,0003.72,0002.43
2023-06-25 11:21:00,SystemResetWarning,0835.9,5.00,000.00,030.5,028.9,000.0,039.1,032.0,24.4,0000.0,0011.16,0003.73,0002.45
2023-06-25 11:22:00,SystemResetWarning,0835.9,4.99,000.00,030.5,028.9,000.0,039.1,032.0,24.4,0000.0,0010.88,0003.69,0002.45
2023-06-25 11:23:00,SystemResetWarning,0835.9,5.00,000.00,030.5,028.9,000.0,039.1,032.0,24.3,0000.0,0011.03,0003.70,0002.46
2023-06-25 11:24:00,SystemResetWarning,0835.9,4.99,000.00,030.5,028.9,000.0,039.1,032.0,24.3,0000.0,0010.44,0003.70,0002.45
2023-06-25 11:25:00,SystemResetWarning,0835.9,5.00,000.00,030.5,028.9,000.0,039.1,032.0,24.4,0000.0,0010.40,0003.69,0002.44
2023-06-25 11:26:00,SystemResetWarning,0835.9,5.01,000.00,030.6,028.9,000.0,039.1,032.0,24.4,0000.0,0009.85,0003.70,0002.45
2023-06-25 11:27:00,SystemResetWarning,0835.9,5.01,000.00,030.6,028.9,000.0,039.1,032.0,24.4,0000.0,0009.73,0003.75,0002.47
2023-06-25 11:28:00,SystemResetWarning,0835.9,5.00,000.00,030.5,028.8,000.0,039.1,032.0,24.3,0000.0,0009.43,0003.71,0002.47
2023-06-25 11:29:00,SystemResetWarning,0835.9,5.00,000.00,030.5,028.9,000.0,039.1,032.0,24.3,0000.0,0009.52,0003.63,0002.47
2023-06-25 11:30:00,SystemResetWarning,0835.9,5.00,000.00,030.6,028.9,000.0,039.1,032.0,24.3,0000.0,0009.33,0003.66,0002.48
2023-06-25 11:31:00,SystemResetWarning,0835.9,5.00,000.00,030.5,028.8,000.0,039.1,032.0,24.2,0000.0,0009.34,0003.64,0002.48
2023-06-25 11:32:00,SystemResetWarning,0835.9,5.00,000.00,030.6,028.8,000.0,039.1,032.0,24.2,0000.0,0009.13,0003.60,0002.46
2023-06-25 11:33:00,SystemResetWarning,0835.9,4.99,000.00,030.6,028.8,000.0,039.2,032.0,24.1,0000.0,0009.61,0003.61,0002.46
2023-06-25 11:34:00,SystemResetWarning,0835.9,5.00,000.00,030.6,028.9,000.0,039.1,032.0,24.1,0000.0,0009.60,0003.60,0002.47
2023-06-25 11:35:00,SystemResetWarning,0835.8,5.01,000.00,030.6,028.9,000.0,039.1,032.0,24.1,0000.0,0009.60,0003.59,0002.47
2023-06-25 11:36:00,SystemResetWarning,0835.9,5.00,000.00,030.6,028.9,000.0,039.1,032.0,24.1,0000.0,0010.31,0003.62,0002.47
2023-06-25 11:37:00,SystemResetWarning,0835.8,5.00,000.00,030.6,028.9,000.0,039.1,032.0,24.0,0000.0,0010.57,0003.63,0002.44
2023-06-25 11:38:00,SystemResetWarning,0835.8,5.00,000.00,030.6,028.9,000.0,039.1,032.0,24.0,0000.0,0010.77,0003.59,0002.42
2023-06-25 11:39:00,SystemResetWarning,0835.8,5.00,000.00,030.6,028.9,000.0,039.2,032.0,24.0,0000.0,0010.88,0003.55,0002.41
2023-06-25 11:40:00,SystemResetWarning,0835.8,5.00,000.00,030.6,028.9,000.0,039.2,032.0,24.1,0000.0,0011.21,0003.54,0002.39
2023-06-25 11:41:00,SystemResetWarning,0835.9,5.00,000.00,030.6,028.9,000.0,039.2,032.0,24.1,0000.0,0011.82,0003.57,0002.40
2023-06-25 11:42:00,SystemResetWarning,0835.8,4.99,000.00,030.6,028.9,000.0,039.2,032.0,24.1,0000.0,0011.95,0003.62,0002.40
2023-06-25 11:43:00,SystemResetWarning,0835.8,5.00,000.00,030.6,028.9,000.0,039.2,032.0,24.1,0000.0,0012.72,0003.61,0002.38
2023-06-25 11:44:00,SystemResetWarning,0835.8,5.00,000.00,030.6,028.9,000.0,039.2,032.0,24.0,0000.0,0012.72,0003.61,0002.37
2023-06-25 11:45:00,SystemResetWarning,0835.8,5.00,000.00,030.6,028.9,000.0,039.2,032.0,24.0,0000.0,0013.15,0003.66,0002.37
2023-06-25 11:46:00,SystemResetWarning,0835.9,4.99,000.00,030.6,028.9,000.0,039.1,032.0,24.0,0000.0,0013.86,0003.67,0002.37
2023-06-25 11:47:00,SystemResetWarning,0835.9,5.00,000.00,030.6,028.9,000.0,039.1,032.0,24.0,0000.0,0013.93,0003.63,0002.37
2023-06-25 11:48:00,SystemResetWarning,0835.9,5.00,000.00,030.6,028.9,000.0,039.2,032.0,23.9,0000.0,0013.45,0003.60,0002.39
2023-06-25 11:49:00,SystemResetWarning,0835.9,5.00,000.00,030.6,028.9,000.0,039.2,032.0,23.9,0000.0,0012.98,0003.55,0002.38
2023-06-25 11:50:00,SystemResetWarning,0835.9,5.00,000.00,030.6,028.9,000.0,039.2,032.0,23.9,0000.0,0013.37,0003.57,0002.38
2023-06-25 11:51:00,SystemResetWarning,0835.9,5.00,000.00,030.6,028.9,000.0,039.2,032.0,23.8,0000.0,0012.44,0003.59,0002.39
2023-06-25 11:52:00,SystemResetWarning,0835.8,5.00,000.00,030.6,028.9,000.0,039.2,032.0,23.8,0000.0,0012.14,0003.58,0002.39
2023-06-25 11:53:00,SystemResetWarning,0835.9,5.01,000.00,030.6,028.9,000.0,039.2,032.0,23.7,0000.0,0012.49,0003.51,0002.37
2023-06-25 11:54:00,SystemResetWarning,0835.9,5.00,000.00,030.6,028.9,000.0,039.2,032.0,23.7,0000.0,0012.41,0003.50,0002.36
2023-06-25 11:55:00,SystemResetWarning,0835.8,5.00,000.00,030.6,028.9,000.0,039.2,032.0,23.6,0000.0,0012.81,0003.49,0002.35
2023-06-25 11:56:00,SystemResetWarning,0835.8,4.99,000.00,030.6,028.9,000.0,039.2,032.0,23.6,0000.0,0012.92,0003.43,0002.32
2023-06-25 11:57:00,SystemResetWarning,0835.8,5.00,000.00,030.6,028.9,000.0,039.2,032.1,23.6,0000.0,0012.15,0003.35,0002.28
2023-06-25 11:58:00,SystemResetWarning,0835.8,5.00,000.00,030.6,028.9,000.0,039.2,032.1,23.6,0000.0,0011.23,0003.33,0002.26
2023-06-25 11:59:00,SystemResetWarning,0835.8,5.01,000.00,030.6,028.9,000.0,039.2,032.1,23.6,0000.0,0011.11,0003.30,0002.23
